Weather History for Victorville, CA

Change the Weather History Date:

Friday, January 10, 2014

  Actual Average (KSBD) Record (KSBD)
Temperature  
Mean Temperature 52 °F -  
Max Temperature 69 °F 66 °F 73 °F (2014)
Min Temperature 35 °F 41 °F 37 °F (2012)
Degree Days  
Heating Degree Days 13    
Growing Degree Days 2 (Base 50)    
Moisture  
Dew Point 28 °F    
Average Humidity 46    
Maximum Humidity 70    
Minimum Humidity 21    
Precipitation  
Precipitation 0.00 in - - ()
Sea Level Pressure  
Sea Level Pressure 30.15 in    
Wind  
Wind Speed 7 mph (SSW)    
Max Wind Speed 10 mph    
Max Gust Speed -    
Visibility 10 miles    
Events      
Averages and records for this station are not official NWS values.
T = Trace of Precipitation, MM = Missing Value Source: NWS Daily Summary

Daily Weather History Graph

Daily Weather History Graph

Search for Another Location

Airport:

Trip Planner

Search our weather history database for the weather conditions in past years. The results will help you decide how hot, cold, wet, or windy it might be!

Date:

Astronomy

Jan. 10, 2014 Rise Set
Actual Time 6:56 AM PST 4:57 PM PST
Civil Twilight 6:29 AM PST 5:25 PM PST
Nautical Twilight 5:58 AM PST 5:56 PM PST
Astronomical Twilight 5:27 AM PST 6:26 PM PST
Moon 1:01 PM PST (1/10) 2:12 AM PST (1/10)
Length of Visible Light 10h 55m
Length of Day
10h 00m
Waxing Gibbous, 76% of the Moon is Illuminated
Jan 10
Waxing Gibbous
Jan 15
Full
Jan 23
Last Quarter
Jan 30
New
Feb 6
First Quarter

Hourly Weather History & Observations

Time (PST) Temp. Windchill Dew Point Humidity Pressure Visibility Wind Dir Wind Speed Gust Speed Precip Events Conditions
12:15 AM 39.2 °F 34.2 °F 28.4 °F 65% 30.14 in 10.0 mi SSE 6.9 mph - N/A   Unknown
12:35 AM 39.2 °F 33.6 °F 28.4 °F 65% 30.13 in 10.0 mi South 8.1 mph - N/A   Unknown
12:55 AM 37.4 °F 32.8 °F 26.6 °F 65% 30.12 in 10.0 mi South 5.8 mph - N/A   Unknown
1:15 AM 39.2 °F 35.9 °F 26.6 °F 61% 30.14 in 10.0 mi SSE 4.6 mph - N/A   Unknown
1:35 AM 37.4 °F 32.8 °F 26.6 °F 65% 30.15 in 10.0 mi SSE 5.8 mph - N/A   Unknown
1:55 AM 37.4 °F 32.1 °F 26.6 °F 65% 30.15 in 10.0 mi South 6.9 mph - N/A   Unknown
2:15 AM 35.6 °F 28.6 °F 26.6 °F 70% 30.16 in 10.0 mi South 9.2 mph - N/A   Unknown
2:35 AM 35.6 °F 30.7 °F 24.8 °F 65% 30.15 in 10.0 mi SSW 5.8 mph - N/A   Unknown
2:55 AM 35.6 °F 28.6 °F 24.8 °F 65% 30.16 in 10.0 mi South 9.2 mph - N/A   Unknown
3:15 AM 37.4 °F 32.1 °F 26.6 °F 65% 30.15 in 10.0 mi South 6.9 mph - N/A   Unknown
3:35 AM 37.4 °F 31.4 °F 26.6 °F 65% 30.15 in 10.0 mi SSE 8.1 mph - N/A   Unknown
3:55 AM 37.4 °F 31.4 °F 26.6 °F 65% 30.15 in 10.0 mi SSE 8.1 mph - N/A   Unknown
4:15 AM 37.4 °F 30.8 °F 26.6 °F 65% 30.14 in 10.0 mi SSE 9.2 mph - N/A   Unknown
4:35 AM 37.4 °F 30.8 °F 26.6 °F 65% 30.15 in 10.0 mi SSE 9.2 mph - N/A   Unknown
4:55 AM 39.2 °F 32.5 °F 26.6 °F 61% 30.14 in 10.0 mi SE 10.4 mph - N/A   Unknown
5:15 AM 37.4 °F 30.8 °F 26.6 °F 65% 30.14 in 10.0 mi SSE 9.2 mph - N/A   Unknown
5:35 AM 37.4 °F 30.8 °F 26.6 °F 65% 30.14 in 10.0 mi SSE 9.2 mph - N/A   Unknown
5:55 AM 37.4 °F 30.8 °F 26.6 °F 65% 30.15 in 10.0 mi South 9.2 mph - N/A   Unknown
6:15 AM 37.4 °F 30.8 °F 26.6 °F 65% 30.15 in 10.0 mi South 9.2 mph - N/A   Unknown
6:35 AM 37.4 °F 30.8 °F 26.6 °F 65% 30.15 in 10.0 mi SSE 9.2 mph - N/A   Unknown
6:55 AM 37.4 °F 32.8 °F 26.6 °F 65% 30.16 in 10.0 mi South 5.8 mph - N/A   Unknown
7:15 AM 35.6 °F 29.9 °F 26.6 °F 70% 30.17 in 10.0 mi South 6.9 mph - N/A   Unknown
7:35 AM 37.4 °F 34.9 °F 26.6 °F 65% 30.17 in 10.0 mi SSE 3.5 mph - N/A   Unknown
7:55 AM 39.2 °F 34.2 °F 26.6 °F 61% 30.18 in 10.0 mi SSE 6.9 mph - N/A   Unknown
8:15 AM 42.8 °F 38.6 °F 28.4 °F 57% 30.19 in 10.0 mi SSE 6.9 mph - N/A   Unknown
8:35 AM 44.6 °F 40.7 °F 28.4 °F 53% 30.19 in 10.0 mi SSE 6.9 mph - N/A   Unknown
8:55 AM 46.4 °F 42.4 °F 28.4 °F 50% 30.20 in 10.0 mi SSE 8.1 mph - N/A   Unknown
9:15 AM 48.2 °F - 28.4 °F 46% 30.20 in 10.0 mi SSE 8.1 mph - N/A   Unknown
9:35 AM 50.0 °F - 28.4 °F 43% 30.20 in 10.0 mi SSE 9.2 mph - N/A   Unknown
9:55 AM 53.6 °F - 28.4 °F 38% 30.20 in 10.0 mi SE 9.2 mph - N/A   Unknown
10:15 AM 53.6 °F - 28.4 °F 38% 30.19 in 10.0 mi SSE 8.1 mph - N/A   Unknown
10:35 AM 55.4 °F - 30.2 °F 38% 30.18 in 10.0 mi Calm Calm - N/A   Unknown
10:55 AM 57.2 °F - 32.0 °F 38% 30.17 in 10.0 mi SSW 4.6 mph - N/A   Unknown
11:15 AM 60.8 °F - 32.0 °F 34% 30.16 in 10.0 mi WSW 8.1 mph - N/A   Unknown
11:35 AM 60.8 °F - 32.0 °F 34% 30.15 in 10.0 mi SW 8.1 mph - N/A   Unknown
11:55 AM 62.6 °F - 32.0 °F 32% 30.15 in 10.0 mi WSW 5.8 mph - N/A   Unknown
12:15 PM 62.6 °F - 30.2 °F 30% 30.14 in 10.0 mi West 6.9 mph - N/A   Unknown
12:35 PM 62.6 °F - 32.0 °F 32% 30.13 in 10.0 mi WNW 6.9 mph - N/A   Unknown
12:55 PM 64.4 °F - 30.2 °F 28% 30.12 in 10.0 mi West 8.1 mph - N/A   Unknown
1:15 PM 64.4 °F - 30.2 °F 28% 30.11 in 10.0 mi WNW 5.8 mph - N/A   Unknown
1:35 PM 66.2 °F - 30.2 °F 26% 30.10 in 10.0 mi West 5.8 mph - N/A   Unknown
1:55 PM 66.2 °F - 30.2 °F 26% 30.09 in 10.0 mi West 6.9 mph - N/A   Unknown
2:15 PM 68.0 °F - 30.2 °F 24% 30.09 in 10.0 mi West 5.8 mph - N/A   Unknown
2:35 PM 69.8 °F - 30.2 °F 23% 30.09 in 10.0 mi West 6.9 mph - N/A   Unknown
2:55 PM 69.8 °F - 28.4 °F 21% 30.09 in 10.0 mi WNW 8.1 mph - N/A   Unknown
3:15 PM 68.0 °F - 28.4 °F 23% 30.09 in 10.0 mi West 6.9 mph - N/A   Unknown
3:35 PM 69.8 °F - 28.4 °F 21% 30.09 in 10.0 mi West 8.1 mph - N/A   Unknown
3:55 PM 68.0 °F - 30.2 °F 24% 30.10 in 10.0 mi West 5.8 mph - N/A   Unknown
4:15 PM 68.0 °F - 30.2 °F 24% 30.10 in 10.0 mi West 5.8 mph - N/A   Unknown
4:35 PM 66.2 °F - 28.4 °F 24% 30.10 in 10.0 mi West 5.8 mph - N/A   Unknown
4:55 PM 64.4 °F - 28.4 °F 26% 30.10 in 10.0 mi West 6.9 mph - N/A   Unknown
5:15 PM 62.6 °F - 28.4 °F 27% 30.10 in 10.0 mi Calm Calm - N/A   Unknown
5:35 PM 62.6 °F - 28.4 °F 27% 30.11 in 10.0 mi West 5.8 mph - N/A   Unknown
5:55 PM 60.8 °F - 28.4 °F 29% 30.12 in 10.0 mi West 9.2 mph - N/A   Unknown
6:15 PM 57.2 °F - 28.4 °F 33% 30.12 in 10.0 mi WSW 9.2 mph - N/A   Unknown
6:35 PM 55.4 °F - 28.4 °F 36% 30.12 in 10.0 mi WSW 5.8 mph - N/A   Unknown
6:55 PM 55.4 °F - 28.4 °F 36% 30.13 in 10.0 mi West 8.1 mph - N/A   Unknown
7:15 PM 55.4 °F - 28.4 °F 36% 30.14 in 10.0 mi West 4.6 mph - N/A   Unknown
7:35 PM 50.0 °F - 28.4 °F 43% 30.14 in 10.0 mi South 4.6 mph - N/A   Unknown
7:55 PM 51.8 °F - 28.4 °F 41% 30.16 in 10.0 mi Calm Calm - N/A   Unknown
8:15 PM 53.6 °F - 28.4 °F 38% 30.16 in 10.0 mi Calm Calm - N/A   Unknown
8:35 PM 48.2 °F - 28.4 °F 46% 30.17 in 10.0 mi SSW 5.8 mph - N/A   Unknown
8:55 PM 46.4 °F 45.2 °F 26.6 °F 46% 30.17 in 10.0 mi SSW 3.5 mph - N/A   Unknown
9:15 PM 44.6 °F 40.7 °F 26.6 °F 49% 30.18 in 10.0 mi South 6.9 mph - N/A   Unknown
9:35 PM 46.4 °F 42.4 °F 26.6 °F 46% 30.18 in 10.0 mi South 8.1 mph - N/A   Unknown
9:55 PM 44.6 °F 40.2 °F 26.6 °F 49% 30.18 in 10.0 mi South 8.1 mph - N/A   Unknown
10:15 PM 42.8 °F 39.3 °F 26.6 °F 53% 30.19 in 10.0 mi SSW 5.8 mph - N/A   Unknown
10:35 PM 44.6 °F 40.7 °F 26.6 °F 49% 30.19 in 10.0 mi South 6.9 mph - N/A   Unknown
10:55 PM 44.6 °F 40.2 °F 26.6 °F 49% 30.19 in 10.0 mi SSW 8.1 mph - N/A   Unknown
11:15 PM 46.4 °F 42.9 °F 26.6 °F 46% 30.18 in 10.0 mi SW 6.9 mph - N/A   Unknown
11:35 PM 42.8 °F 40.1 °F 26.6 °F 53% 30.19 in 10.0 mi SSW 4.6 mph - N/A   Unknown
11:55 PM 42.8 °F 40.1 °F 26.6 °F 53% 30.19 in 10.0 mi SW 4.6 mph - N/A   Unknown